Weather in Malaya Tomka

Russia / Novosibirsk Oblast     54°17′25″N   84°24′56″E
temp.,
°C
wind,
m/s
gust,
m/s
humid.,
%
clouds,
%
prec.,
mm/h
press.,
hPa
HPBL,
m
9 december, thu
thu901:00−30sw11100100 0.1 10439
04:00−31ssw11100100 0.0 10449
07:00−32s11100100 0.0 10469
10:00−31s21100100 0.0 104820
13:00−23ssw359894 0.0 1048189
16:00−21s369795 0.0 1048195
19:00−23s24100100 0.0 104982
22:00−22s2699100 0.0 1050112
10 december, fri
fri1001:00−27sse2210069 0.0 105012
04:00−27sse2210099 0.0 104930
07:00−20s31097100 0.0 1047270
10:00−17s41196100 0.1 1046380
13:00−14ssw51194100 0.8 1045453
16:00−12ssw41094100 0.4 1044490
19:00−12ssw41095100 0.8 1044421
22:00−12ssw4994100 0.3 1045350
11 december, sat
sat1101:00−12s399373 0.3 1043292
04:00−16sse259769 0.0 104371
07:00−16sse31092100 0.0 1041177
10:00−16sse2891100 0.0 1039159
13:00−10s3984100 0.0 1036237
16:00−9s41282100 0.0 1033296
19:00−10s41281100 0.0 1031276
22:00−10s41183100 0.0 1029287
12 december, sun
sun1201:00−11s31085100 0.0 1027244
04:00−13s2690100 0.0 1025108
07:00−13ssw2793100 0.0 1024135
10:00−16ssw1198100 0.0 102410
13:00−11w3593100 0.0 1023258
16:00−11wnw2495100 0.1 1023280
19:00−14wnw3697100 0.1 1025191
22:00−24nw2210086 0.0 102911
13 december, mon
mon1301:00−28nw1110099 0.0 103110
04:00−30nw1110099 0.0 10339
07:00−31ssw0010099 0.0 10349
10:00−25sw12100100 0.1 103350
13:00−20ssw2496100 0.2 1032267
16:00−19ssw3595100 0.3 1031349
19:00−18ssw2597100 0.6 1031285
22:00−17s2598100 0.4 1030235